星链-33839 (STARLINK-33839)

导读 | 豆包AI

STARLINK-33839是美国SpaceX公司旗下星链星座的一员,于2025年5月23日由猎鹰9号火箭发射升空,此次任务同时完成了SpaceX第450次火箭助推器着陆回收。该卫星运行在近地轨道,属于星链第二代卫星网络,承担全球宽带互联网接入服务,采用相控阵天线、激光星间链路等技术,具备低时延高带宽通信能力,为偏远地区、移动场景提供网络覆盖,可支持直连手机等应用场景,是星链巨型星座扩容的重要组成部分。

Basic Information
目录编号:
64113
目录名称:
STARLINK-33839
国际标识:
2025-110T
轨道中心:
EARTH
卫星名称:
星链-33839
卫星全名:
星链-33839 (STARLINK-33839)
卫星状态:
在轨 (已飞行341 天)
发射日期:
2025-05-23 UTC
国别 :
美国 (US)
星等 :
--
Orbit Information
数据来源 国际轨道数据 AOE轨道数据
星历时间 2026-04-29T19:58:04+0800
8小时前
查看轨道信息
2026-04-27T04:00:00+0800
3天前
查看轨道信息
半长轴 6853.347km 6853.255km
偏心率 0.0000967 0.0001266
轨道倾角 53.158° 53.159°
近地点辐角 79.207° 30.929°
升交点赤经 150.610° 162.991°
平近点角 280.904° 38.524°
近地点 474.547km 474.25km
远地点 475.873km 475.986km
周期 94.105分钟 94.103分钟
每日圈数 15.302019 15.302328
Detailed Information
固有亮度:
5
最大亮度:
2.5
卫星平台:
Starlink V1.0
覆盖范围:
全球
运营商:
太空探索技术公司
运营商所在国:
美国
制造商(研发单位):
太空探索技术公司
制造商所在国:
美国
使用方式:
暂无
Satellite Introduction
Starlink 计划是 SpaceX 推出的全球卫星互联网项目,通过发射低轨道卫星,为全球尤其是偏远地区提供高速、低延迟的互联网服务。自 2019 年起,Starlink 已部署数千颗卫星,旨在缩小全球数字鸿沟,推动互联网普及。该项目还为军事、航空等行业提供通信支持,带来广泛经济效益。
2D Orbit Map
3D Orbit Map
Orbit Altitude Analysis Chart
Orbit Inclination Analysis Chart
Orbit Comprehensive Analysis Chart
View Comprehensive Chart